Volver al catálogo

COSMOS 839 DEB

ActivoUNKNOWN
NORAD 10621·DEBRIS·🇷🇺 Russia

Lanzado Jul 8, 1976 desde Plesetsk Cosmodrome

Loading…

Próximos Pases (próximas 24 horas)

TLE

ActualizadoSource: Space-Track

Época: Sep 14, 2026, 16:40 UTC

1 10621U 76067AV  26257.69450523 -.00000007  00000-0  18613-3 0  9992
2 10621  66.0249 138.8662 0668596 181.3299 209.2943 12.31133757254942

Sigue COSMOS 839 DEB en tiempo real con AllMySat

Download on the App Store